Tracking 23726 objects as of 22-Sep-2021
HD Live streaming from Space Station
objects crossing your sky now

STARLINK-1560

Track STARLINK-1560 now!
10-day predictions
STARLINK-1560 is classified as:


NORAD ID: 46036
Int'l Code: 2020-055K
Perigee: 553.4 km
Apogee: 555.3 km
Inclination: 53.1 °
Period: 95.6 minutes
Semi major axis: 6925 km
RCS: Unknown
Launch date: August 7, 2020
Source: United States (US)
Launch site: AIR FORCE EASTERN TEST RANGE (AFETR)
aabbcc
Your satellite tracking list
Your tracking list is empty




NASA's NSSDC Master Catalog

Two Line Element Set (TLE):
1 46036U 20055K   21265.65064433  .00000866  00000-0  77048-4 0  9998
2 46036  53.0527 239.6669 0001363  67.4332 292.6801 15.06390945 62842
Source of the keplerian elements: AFSPC